DW8241 Weather Reports


Display with metric or nautical units.
time (UTC)temp
F
wind
direction
speed
MPH
gust
MPH
rain 1hr
in
rain 24hr
in
rain mn
in
humidity
%
barometer
mb
20260831041617 68 132 0.0 2.0 0.00 0.04 0.04 96 1004.0
20260831040055 68 115 0.0 3.0 0.00 0.04 0.04 97 1004.1
20260831034555 68 98 1.0 2.0 0.00 0.04 0.04 97 1004.0
20260831033107 67 94 1.0 3.0 0.00 0.04 0.04 98 1004.2
20260831031554 67 101 0.0 3.0 0.00 0.04 0.04 98 1004.4
20260831030051 67 129 1.0 3.0 0.00 0.04 0.04 99 1004.5
20260831024548 67 101 1.0 6.0 0.00 0.04 0.04 99 1004.6
20260831023046 67 118 1.0 4.0 0.00 0.04 0.04 100 1004.9
20260831021546 68 112 0.0 3.0 0.00 0.04 0.04 100 1005.1
20260831020046 68 115 1.0 4.0 0.00 0.04 0.04 100 1005.5
20260831014545 68 103 0.0 3.0 0.00 0.04 0.04 100 1005.4
20260831013054 68 113 1.0 4.0 0.03 0.04 0.04 100 1004.9
20260831011546 68 110 1.0 4.0 0.04 0.04 0.04 99 1005.0
20260831010054 69 105 1.0 3.0 0.04 0.04 0.04 99 1004.9
20260831004545 70 112 1.0 3.0 0.04 0.04 0.04 95 1005.4
20260831003050 71 98 1.0 5.0 0.00 0.00 0.00 91 1005.4
20260831001540 73 167 2.0 6.0 0.00 0.00 0.00 85 1005.4
20260831000040 74 110 2.0 5.0 0.00 0.00 0.00 85 1005.1
20260830234547 74 153 2.0 6.0 0.00 0.00 0.00 85 1005.1
20260830233037 75 98 1.0 6.0 0.00 0.00 0.00 84 1005.0
20260830231539 75 127 1.0 6.0 0.00 0.00 0.00 84 1005.4
20260830230043 75 133 2.0 6.0 0.00 0.00 0.00 83 1005.5
20260830224538 75 99 1.0 7.0 0.00 0.00 0.00 83 1005.7
20260830223035 76 124 3.0 8.0 0.00 0.00 0.00 82 1005.2
20260830221532 77 115 3.0 7.0 0.00 0.00 0.00 81 1005.2
20260830220030 76 109 3.0 8.0 0.00 0.00 0.00 82 1005.7
20260830214527 77 133 2.0 5.0 0.00 0.00 0.00 82 1006.1
20260830213024 77 152 2.0 8.0 0.00 0.00 0.00 81 1006.2
20260830211522 78 143 2.0 6.0 0.00 0.00 0.00 81 1006.5
20260830210020 77 105 1.0 5.0 0.00 0.00 0.00 81 1006.7
20260830204518 77 122 1.0 5.0 0.00 0.00 0.00 81 1006.9
20260830203023 77 86 2.0 6.0 0.00 0.00 0.00 81 1007.0
20260830201616 77 137 1.0 5.0 0.00 0.00 0.00 81 1007.1
20260830200013 77 141 1.0 5.0 0.00 0.00 0.00 82 1007.4
20260830194512 77 100 1.0 4.0 0.00 0.00 0.00 82 1007.4
20260830193011 77 85 3.0 7.0 0.00 0.00 0.00 81 1007.5
20260830191510 78 94 2.0 7.0 0.00 0.00 0.00 79 1007.4
20260830190007 78 154 2.0 7.0 0.00 0.00 0.00 81 1007.5
20260830184504 77 81 2.0 5.0 0.00 0.00 0.00 81 1007.5
20260830183002 77 133 2.0 5.0 0.00 0.00 0.00 82 1007.6
20260830181600 76 142 1.0 5.0 0.00 0.00 0.00 83 1007.7
20260830180106 75 84 1.0 6.0 0.00 0.00 0.00 84 1007.7
20260830174558 76 136 1.0 4.0 0.00 0.00 0.00 83 1007.7
20260830173111 75 155 1.0 5.0 0.00 0.00 0.00 84 1007.9
20260830171555 76 108 0.0 3.0 0.00 0.00 0.00 83 1008.2
20260830170056 76 101 1.0 3.0 0.00 0.00 0.00 83 1008.2
20260830164557 75 145 1.0 5.0 0.00 0.00 0.00 85 1008.1
20260830163057 74 81 1.0 4.0 0.00 0.00 0.00 84 1008.1
20260830161609 75 80 2.0 4.0 0.00 0.00 0.00 84 1008.1
20260830160047 75 103 2.0 4.0 0.00 0.00 0.00 85 1008.2
20260830154542 72 102 1.0 4.0 0.00 0.00 0.00 90 1008.5
20260830153047 72 83 0.0 3.0 0.00 0.00 0.00 89 1008.8
20260830151542 72 71 2.0 5.0 0.00 0.00 0.00 88 1008.8
20260830150051 72 139 1.0 5.0 0.00 0.00 0.00 90 1008.7
20260830144533 68 126 1.0 3.0 0.00 0.00 0.00 95 1008.6
20260830143033 68 130 1.0 5.0 0.00 0.00 0.00 94 1008.7
20260830141535 68 128 0.0 3.0 0.00 0.00 0.00 95 1009.1
20260830140031 67 110 1.0 3.0 0.00 0.00 0.00 96 1009.1
20260830134538 67 105 0.0 4.0 0.00 0.00 0.00 96 1009.1
20260830133031 67 136 0.0 4.0 0.00 0.00 0.00 96 1009.1
20260830131638 67 102 1.0 3.0 0.00 0.00 0.00 96 1009.0
20260830130029 66 108 0.0 3.0 0.00 0.00 0.00 96 1009.1
20260830124529 66 101 0.0 3.0 0.00 0.00 0.00 96 1008.9
20260830123027 66 103 0.0 2.0 0.00 0.00 0.00 97 1009.0
20260830121526 66 95 0.0 3.0 0.00 0.00 0.00 97 1009.0
20260830120026 66 114 0.0 2.0 0.00 0.00 0.00 97 1009.1
20260830114526 66 120 0.0 1.0 0.00 0.00 0.00 97 1009.0
20260830113027 66 106 0.0 1.0 0.00 0.00 0.00 97 1008.7
20260830111526 66 101 0.0 1.0 0.00 0.00 0.00 97 1008.5
20260830110023 66 101 0.0 2.0 0.00 0.00 0.00 96 1008.5
20260830104522 67 147 0.0 1.0 0.00 0.00 0.00 96 1008.7
20260830103023 67 139 0.0 1.0 0.00 0.00 0.00 96 1008.3
20260830101523 67 129 0.0 1.0 0.00 0.00 0.00 96 1008.5
20260830100022 67 120 0.0 2.0 0.00 0.00 0.00 96 1008.5
20260830094521 66 100 0.0 0.0 0.00 0.00 0.00 96 1008.5
20260830093021 67 100 0.0 0.0 0.00 0.00 0.00 96 1008.7
20260830091537 67 100 0.0 0.0 0.00 0.00 0.00 95 1008.6
20260830090021 67 100 0.0 2.0 0.00 0.00 0.00 95 1008.5
20260830084518 68 85 0.0 3.0 0.00 0.00 0.00 95 1008.2
20260830083018 68 108 0.0 1.0 0.00 0.00 0.00 95 1008.6
20260830081518 67 108 0.0 1.0 0.00 0.00 0.00 95 1008.6
20260830080015 67 91 0.0 1.0 0.00 0.00 0.00 96 1008.6
20260830074522 67 91 0.0 1.0 0.00 0.00 0.00 96 1008.5
20260830073013 67 124 0.0 1.0 0.00 0.00 0.00 95 1008.6
20260830071513 67 122 0.0 1.0 0.00 0.00 0.00 95 1008.7
20260830070013 67 122 0.0 1.0 0.00 0.00 0.00 95 1008.7
20260830064511 67 115 0.0 1.0 0.00 0.00 0.00 95 1008.9
20260830063011 67 114 0.0 1.0 0.00 0.00 0.00 95 1008.8
20260830061509 67 126 0.0 1.0 0.00 0.00 0.00 94 1009.0
20260830060007 68 124 0.0 0.0 0.00 0.00 0.00 94 1008.7
20260830054506 68 124 0.0 0.0 0.00 0.00 0.00 94 1008.7
20260830053003 68 123 0.0 1.0 0.00 0.00 0.00 93 1008.9
20260830051501 69 123 0.0 1.0 0.00 0.00 0.00 92 1008.9
20260830050058 69 112 0.0 1.0 0.00 0.00 0.00 92 1009.1
20260830044612 70 120 0.0 2.0 0.00 0.00 0.00 92 1009.4
20260830043057 70 127 0.0 1.0 0.00 0.00 0.00 91 1009.6